TimeCDT,TemperatureF,Dew PointF,Humidity,Sea Level PressureIn,VisibilityMPH,Wind Direction,Wind SpeedMPH,Gust SpeedMPH,PrecipitationIn,Events,Conditions,WindDirDegrees,DateUTC
12:15 AM,54.5,49.8,84,30.14,10.0,NE,5.8,-,N/A,,Clear,50,2012-10-09 05:15:00
12:35 AM,54.1,49.6,85,30.13,10.0,ENE,6.9,-,N/A,,Clear,60,2012-10-09 05:35:00
12:55 AM,53.6,49.5,86,30.13,10.0,ENE,4.6,-,N/A,,Clear,60,2012-10-09 05:55:00
1:15 AM,53.2,49.3,86,30.13,10.0,NE,4.6,-,N/A,,Clear,50,2012-10-09 06:15:00
1:35 AM,52.9,49.1,87,30.13,10.0,ENE,5.8,-,N/A,,Clear,70,2012-10-09 06:35:00
1:55 AM,52.3,49.1,89,30.12,10.0,NE,4.6,-,N/A,,Clear,50,2012-10-09 06:55:00
2:15 AM,52.3,49.1,89,30.12,10.0,ENE,5.8,-,N/A,,Clear,60,2012-10-09 07:15:00
2:55 AM,51.8,48.6,89,30.12,10.0,NE,3.5,-,N/A,,Clear,50,2012-10-09 07:55:00
3:15 AM,51.1,48.2,90,30.12,10.0,NE,3.5,-,N/A,,Clear,50,2012-10-09 08:15:00
3:35 AM,51.1,48.2,90,30.12,10.0,Calm,Calm,-,N/A,,Clear,0,2012-10-09 08:35:00
3:55 AM,50.9,48.2,90,30.12,10.0,Calm,Calm,-,N/A,,Clear,0,2012-10-09 08:55:00
4:15 AM,50.9,48.2,90,30.12,10.0,Calm,Calm,-,N/A,,Clear,0,2012-10-09 09:15:00
4:35 AM,50.7,48.0,90,30.12,10.0,Calm,Calm,-,N/A,,Clear,0,2012-10-09 09:35:00
4:55 AM,50.4,47.8,91,30.12,10.0,Calm,Calm,-,N/A,,Clear,0,2012-10-09 09:55:00
5:15 AM,50.7,48.0,90,30.12,10.0,Calm,Calm,-,N/A,,Clear,0,2012-10-09 10:15:00
5:35 AM,50.2,47.3,90,30.13,10.0,Calm,Calm,-,N/A,,Clear,0,2012-10-09 10:35:00
5:55 AM,50.2,47.8,92,30.13,10.0,Calm,Calm,-,N/A,,Clear,0,2012-10-09 10:55:00
6:00 AM,50.0,46.4,87,30.13,10.0,Calm,Calm,-,N/A,,Clear,0,2012-10-09 11:00:00
6:55 AM,48.2,46.4,93,30.13,10.0,Calm,Calm,-,N/A,,Clear,0,2012-10-09 11:55:00
7:50 AM,51.8,48.2,88,30.14,10.0,Calm,Calm,-,N/A,,Clear,0,2012-10-09 12:50:00
8:58 AM,57.2,53.6,88,30.14,10.0,East,4.6,-,N/A,,Clear,90,2012-10-09 13:58:00
9:58 AM,62.6,53.6,72,30.14,10.0,ESE,5.8,-,N/A,,Clear,110,2012-10-09 14:58:00
10:51 AM,66.2,55.4,68,30.15,10.0,ESE,4.6,-,N/A,,Clear,110,2012-10-09 15:51:00
11:59 AM,71.6,57.2,60,30.12,10.0,Calm,Calm,-,N/A,,Clear,0,2012-10-09 16:59:00
12:58 PM,75.2,59.0,57,30.09,10.0,Calm,Calm,-,N/A,,Clear,0,2012-10-09 17:58:00
1:57 PM,77.0,59.0,54,30.05,10.0,Calm,Calm,-,N/A,,Clear,0,2012-10-09 18:57:00
2:50 PM,80.6,57.2,45,30.03,10.0,Calm,Calm,-,N/A,,Partly Cloudy,0,2012-10-09 19:50:00
4:48 PM,78.8,59.0,51,30.00,10.0,SSE,4.6,-,N/A,,Scattered Clouds,150,2012-10-09 21:48:00
5:50 PM,77.0,62.6,61,30.00,10.0,SW,10.4,-,N/A,,Scattered Clouds,220,2012-10-09 22:50:00
6:50 PM,73.4,64.4,73,30.01,10.0,South,6.9,-,N/A,,Clear,190,2012-10-09 23:50:00
7:50 PM,69.8,62.6,78,30.02,10.0,South,6.9,-,N/A,,Clear,170,2012-10-10 00:50:00
8:55 PM,68.0,62.6,83,30.03,10.0,South,6.9,-,N/A,,Clear,180,2012-10-10 01:55:00
9:50 PM,64.4,60.8,88,30.03,10.0,SSE,6.9,-,N/A,,Clear,150,2012-10-10 02:50:00
10:15 PM,64.4,61.5,90,30.05,10.0,SSE,5.8,-,N/A,,Clear,150,2012-10-10 03:15:00
10:35 PM,63.9,60.8,90,30.05,10.0,SSE,3.5,-,N/A,,Clear,150,2012-10-10 03:35:00
10:55 PM,64.6,61.7,90,30.05,10.0,SE,3.5,-,N/A,,Clear,140,2012-10-10 03:55:00
11:15 PM,63.0,60.1,90,30.04,10.0,SE,5.8,-,N/A,,Clear,140,2012-10-10 04:15:00
11:35 PM,63.9,61.0,90,30.05,10.0,SSE,4.6,-,N/A,,Clear,150,2012-10-10 04:35:00
11:55 PM,63.1,60.4,91,30.05,10.0,SSE,3.5,-,N/A,,Clear,150,2012-10-10 04:55:00